Year,Month,Day,Hour,Minute,Value (Times are PST for temperature in C)
2014,04,09,00,00,8.90
2014,04,09,00,01,8.90
2014,04,09,00,02,9.00
2014,04,09,00,03,9.00
2014,04,09,00,04,9.00
2014,04,09,00,05,8.90
2014,04,09,00,06,8.90
2014,04,09,00,07,8.90
2014,04,09,00,08,8.90
2014,04,09,00,09,8.90
2014,04,09,00,10,8.90
2014,04,09,00,11,8.90
2014,04,09,00,12,8.90
2014,04,09,00,13,8.90
2014,04,09,00,14,8.80
2014,04,09,00,15,8.80
2014,04,09,00,16,8.80
2014,04,09,00,17,8.80
2014,04,09,00,18,8.80
2014,04,09,00,19,8.70
2014,04,09,00,20,8.70
2014,04,09,00,21,8.70
2014,04,09,00,22,8.60
2014,04,09,00,23,8.60
2014,04,09,00,24,8.60
2014,04,09,00,25,8.60
2014,04,09,00,26,8.50
2014,04,09,00,27,8.50
2014,04,09,00,28,8.50
2014,04,09,00,29,8.40
2014,04,09,00,30,8.40
2014,04,09,00,31,8.40
2014,04,09,00,32,8.40
2014,04,09,00,33,8.40
2014,04,09,00,34,8.40
2014,04,09,00,35,8.40
2014,04,09,00,36,8.40
2014,04,09,00,37,8.40
2014,04,09,00,38,8.40
2014,04,09,00,39,8.30
2014,04,09,00,40,8.30
2014,04,09,00,41,8.30
2014,04,09,00,42,8.30
2014,04,09,00,43,8.30
2014,04,09,00,44,8.20
2014,04,09,00,45,8.20
2014,04,09,00,46,8.20
2014,04,09,00,47,8.10
2014,04,09,00,48,8.10
2014,04,09,00,49,8.10
2014,04,09,00,50,8.10
2014,04,09,00,51,8.10
2014,04,09,00,52,8.10
2014,04,09,00,53,8.10
2014,04,09,00,54,8.10
2014,04,09,00,55,8.10
2014,04,09,00,56,8.10
2014,04,09,00,57,8.10
2014,04,09,00,58,8.10
2014,04,09,00,59,8.00
2014,04,09,01,00,8.00
2014,04,09,01,01,8.00
2014,04,09,01,02,8.00
2014,04,09,01,03,7.90
2014,04,09,01,04,7.90
2014,04,09,01,05,7.90
2014,04,09,01,06,7.80
2014,04,09,01,07,7.80
2014,04,09,01,08,7.80
2014,04,09,01,09,7.80
2014,04,09,01,10,7.80
2014,04,09,01,11,7.80
2014,04,09,01,12,7.70
2014,04,09,01,13,7.70
2014,04,09,01,14,7.70
2014,04,09,01,15,7.70
2014,04,09,01,16,7.60
2014,04,09,01,17,7.60
2014,04,09,01,18,7.60
2014,04,09,01,19,7.50
2014,04,09,01,20,7.50
2014,04,09,01,21,7.40
2014,04,09,01,22,7.40
2014,04,09,01,23,7.40
2014,04,09,01,24,7.30
2014,04,09,01,25,7.30
2014,04,09,01,26,7.30
2014,04,09,01,27,7.20
2014,04,09,01,28,7.20
2014,04,09,01,29,7.20
2014,04,09,01,30,7.20
2014,04,09,01,31,7.10
2014,04,09,01,32,7.10
2014,04,09,01,33,7.00
2014,04,09,01,34,7.00
2014,04,09,01,35,6.90
2014,04,09,01,36,6.90
2014,04,09,01,37,6.90
2014,04,09,01,38,6.90
2014,04,09,01,39,6.90
2014,04,09,01,40,6.90
2014,04,09,01,41,6.90
2014,04,09,01,42,6.90
2014,04,09,01,43,6.90
2014,04,09,01,44,6.90
2014,04,09,01,45,6.90
2014,04,09,01,46,6.90
2014,04,09,01,47,6.90
2014,04,09,01,48,6.90
2014,04,09,01,49,6.90
2014,04,09,01,50,6.90
2014,04,09,01,51,6.90
2014,04,09,01,52,6.90
2014,04,09,01,53,6.90
2014,04,09,01,54,6.90
2014,04,09,01,55,6.90
2014,04,09,01,56,6.90
2014,04,09,01,57,6.80
2014,04,09,01,58,6.80
2014,04,09,01,59,6.80
2014,04,09,02,00,6.80
2014,04,09,02,01,6.80
2014,04,09,02,02,6.80
2014,04,09,02,03,6.80
2014,04,09,02,04,6.80
2014,04,09,02,05,6.80
2014,04,09,02,06,6.80
2014,04,09,02,07,6.80
2014,04,09,02,08,6.70
2014,04,09,02,09,6.70
2014,04,09,02,10,6.70
2014,04,09,02,11,6.70
2014,04,09,02,12,6.70
2014,04,09,02,13,6.70
2014,04,09,02,14,6.70
2014,04,09,02,15,6.60
2014,04,09,02,16,6.60
2014,04,09,02,17,6.60
2014,04,09,02,18,6.60
2014,04,09,02,19,6.60
2014,04,09,02,20,6.50
2014,04,09,02,21,6.50
2014,04,09,02,22,6.40
2014,04,09,02,23,6.40
2014,04,09,02,24,6.40
2014,04,09,02,25,6.40
2014,04,09,02,26,6.40
2014,04,09,02,27,6.30
2014,04,09,02,28,6.30
2014,04,09,02,29,6.30
2014,04,09,02,30,6.30
2014,04,09,02,31,6.30
2014,04,09,02,32,6.30
2014,04,09,02,33,6.30
2014,04,09,02,34,6.30
2014,04,09,02,35,6.20
2014,04,09,02,36,6.20
2014,04,09,02,37,6.20
2014,04,09,02,38,6.10
2014,04,09,02,39,6.10
2014,04,09,02,40,6.10
2014,04,09,02,41,6.00
2014,04,09,02,42,6.00
2014,04,09,02,43,5.90
2014,04,09,02,44,5.90
2014,04,09,02,45,5.80
2014,04,09,02,46,5.80
2014,04,09,02,47,5.70
2014,04,09,02,48,5.70
2014,04,09,02,49,5.70
2014,04,09,02,50,5.60
2014,04,09,02,51,5.60
2014,04,09,02,52,5.60
2014,04,09,02,53,5.50
2014,04,09,02,54,5.50
2014,04,09,02,55,5.50
2014,04,09,02,56,5.50
2014,04,09,02,57,5.40
2014,04,09,02,58,5.40
2014,04,09,02,59,5.40
2014,04,09,03,00,5.40
2014,04,09,03,01,5.40
2014,04,09,03,02,5.40
2014,04,09,03,03,5.40
2014,04,09,03,04,5.40
2014,04,09,03,05,5.50
2014,04,09,03,06,5.50
2014,04,09,03,07,5.50
2014,04,09,03,08,5.60
2014,04,09,03,09,5.60
2014,04,09,03,10,5.60
2014,04,09,03,11,5.60
2014,04,09,03,12,5.60
2014,04,09,03,13,5.70
2014,04,09,03,14,5.70
2014,04,09,03,15,5.70
2014,04,09,03,16,5.70
2014,04,09,03,17,5.70
2014,04,09,03,18,5.80
2014,04,09,03,19,5.80
2014,04,09,03,20,5.80
2014,04,09,03,21,5.80
2014,04,09,03,22,5.90
2014,04,09,03,23,5.90
2014,04,09,03,24,5.90
2014,04,09,03,25,5.90
2014,04,09,03,26,6.00
2014,04,09,03,27,6.00
2014,04,09,03,28,6.00
2014,04,09,03,29,6.00
2014,04,09,03,30,6.00
2014,04,09,03,31,6.00
2014,04,09,03,32,6.00
2014,04,09,03,33,6.00
2014,04,09,03,34,6.00
2014,04,09,03,35,6.00
2014,04,09,03,36,6.00
2014,04,09,03,37,5.90
2014,04,09,03,38,5.90
2014,04,09,03,39,5.80
2014,04,09,03,40,5.80
2014,04,09,03,41,5.80
2014,04,09,03,42,5.70
2014,04,09,03,43,5.70
2014,04,09,03,44,5.70
2014,04,09,03,45,5.60
2014,04,09,03,46,5.60
2014,04,09,03,47,5.60
2014,04,09,03,48,5.50
2014,04,09,03,49,5.50
2014,04,09,03,50,5.40
2014,04,09,03,51,5.40
2014,04,09,03,52,5.30
2014,04,09,03,53,5.20
2014,04,09,03,54,5.10
2014,04,09,03,55,5.10
2014,04,09,03,56,5.00
2014,04,09,03,57,4.90
2014,04,09,03,58,4.90
2014,04,09,03,59,4.80
2014,04,09,04,00,4.80
2014,04,09,04,01,4.70
2014,04,09,04,02,4.70
2014,04,09,04,03,4.60
2014,04,09,04,04,4.60
2014,04,09,04,05,4.50
2014,04,09,04,06,4.50
2014,04,09,04,07,4.40
2014,04,09,04,08,4.40
2014,04,09,04,09,4.40
2014,04,09,04,10,4.30
2014,04,09,04,11,4.30
2014,04,09,04,12,4.30
2014,04,09,04,13,4.30
2014,04,09,04,14,4.20
2014,04,09,04,15,4.20
2014,04,09,04,16,4.20
2014,04,09,04,17,4.20
2014,04,09,04,18,4.20
2014,04,09,04,19,4.20
2014,04,09,04,20,4.20
2014,04,09,04,21,4.20
2014,04,09,04,22,4.10
2014,04,09,04,23,4.10
2014,04,09,04,24,4.10
2014,04,09,04,25,4.10
2014,04,09,04,26,4.00
2014,04,09,04,27,4.00
2014,04,09,04,28,4.00
2014,04,09,04,29,4.00
2014,04,09,04,30,3.90
2014,04,09,04,31,3.90
2014,04,09,04,32,3.90
2014,04,09,04,33,3.90
2014,04,09,04,34,3.80
2014,04,09,04,35,3.80
2014,04,09,04,36,3.80
2014,04,09,04,37,3.80
2014,04,09,04,38,3.80
2014,04,09,04,39,3.70
2014,04,09,04,40,3.70
2014,04,09,04,41,3.70
2014,04,09,04,42,3.70
2014,04,09,04,43,3.70
2014,04,09,04,44,3.70
2014,04,09,04,45,3.70
2014,04,09,04,46,3.70
2014,04,09,04,47,3.60
2014,04,09,04,48,3.60
2014,04,09,04,49,3.60
2014,04,09,04,50,3.60
2014,04,09,04,51,3.60
2014,04,09,04,52,3.60
2014,04,09,04,53,3.60
2014,04,09,04,54,3.60
2014,04,09,04,55,3.50
2014,04,09,04,56,3.50
2014,04,09,04,57,3.50
2014,04,09,04,58,3.50
2014,04,09,04,59,3.50
2014,04,09,05,00,3.40
2014,04,09,05,01,3.40
2014,04,09,05,02,3.40
2014,04,09,05,03,3.40
2014,04,09,05,04,3.30
2014,04,09,05,05,3.30
2014,04,09,05,06,3.30
2014,04,09,05,07,3.30
2014,04,09,05,08,3.30
2014,04,09,05,09,3.20
2014,04,09,05,10,3.20
2014,04,09,05,11,3.20
2014,04,09,05,12,3.20
2014,04,09,05,13,3.20
2014,04,09,05,14,3.20
2014,04,09,05,15,3.20
2014,04,09,05,16,3.10
2014,04,09,05,17,3.10
2014,04,09,05,18,3.10
2014,04,09,05,19,3.10
2014,04,09,05,20,3.10
2014,04,09,05,21,3.10
2014,04,09,05,22,3.10
2014,04,09,05,23,3.10
2014,04,09,05,24,3.10
2014,04,09,05,25,3.10
2014,04,09,05,26,3.00
2014,04,09,05,27,3.00
2014,04,09,05,28,3.00
2014,04,09,05,29,3.00
2014,04,09,05,30,2.90
2014,04,09,05,31,2.90
2014,04,09,05,32,2.90
2014,04,09,05,33,2.90
2014,04,09,05,34,2.90
2014,04,09,05,35,2.90
2014,04,09,05,36,2.80
2014,04,09,05,37,2.80
2014,04,09,05,38,2.80
2014,04,09,05,39,2.80
2014,04,09,05,40,2.80
2014,04,09,05,41,2.80
2014,04,09,05,42,2.80
2014,04,09,05,43,2.70
2014,04,09,05,44,2.70
2014,04,09,05,45,2.70
2014,04,09,05,46,2.70
2014,04,09,05,47,2.70
2014,04,09,05,48,2.70
2014,04,09,05,49,2.70
2014,04,09,05,50,2.70
2014,04,09,05,51,2.70
2014,04,09,05,52,2.70
2014,04,09,05,53,2.70
2014,04,09,05,54,2.70
2014,04,09,05,55,2.70
2014,04,09,05,56,2.70
2014,04,09,05,57,2.70
2014,04,09,05,58,2.70
2014,04,09,05,59,2.70
2014,04,09,06,00,2.70
2014,04,09,06,01,2.70
2014,04,09,06,02,2.70
2014,04,09,06,03,2.70
2014,04,09,06,04,2.70
2014,04,09,06,05,2.70
2014,04,09,06,06,2.70
2014,04,09,06,07,2.70
2014,04,09,06,08,2.70
2014,04,09,06,09,2.70
2014,04,09,06,10,2.70
2014,04,09,06,11,2.70
2014,04,09,06,12,2.70
2014,04,09,06,13,2.70
2014,04,09,06,14,2.80
2014,04,09,06,15,2.80
2014,04,09,06,16,2.80
2014,04,09,06,17,2.80
2014,04,09,06,18,2.80
2014,04,09,06,19,2.80
2014,04,09,06,20,2.80
2014,04,09,06,21,2.80
2014,04,09,06,22,2.80
2014,04,09,06,23,2.80
2014,04,09,06,24,2.80
2014,04,09,06,25,2.80
2014,04,09,06,26,2.80
2014,04,09,06,27,2.80
2014,04,09,06,28,2.80
2014,04,09,06,29,2.70
2014,04,09,06,30,2.70
2014,04,09,06,31,2.80
2014,04,09,06,32,2.80
2014,04,09,06,33,2.80
2014,04,09,06,34,2.90
2014,04,09,06,35,2.90
2014,04,09,06,36,3.00
2014,04,09,06,37,3.10
2014,04,09,06,38,3.10
2014,04,09,06,39,3.20
2014,04,09,06,40,3.30
2014,04,09,06,41,3.30
2014,04,09,06,42,3.40
2014,04,09,06,43,3.40
2014,04,09,06,44,3.40
2014,04,09,06,45,3.50
2014,04,09,06,46,3.50
2014,04,09,06,47,3.60
2014,04,09,06,48,3.60
2014,04,09,06,49,3.60
2014,04,09,06,50,3.60
2014,04,09,06,51,3.70
2014,04,09,06,52,3.70
2014,04,09,06,53,3.80
2014,04,09,06,54,3.90
2014,04,09,06,55,4.00
2014,04,09,06,56,4.00
2014,04,09,06,57,4.10
2014,04,09,06,58,4.10
2014,04,09,06,59,4.20
2014,04,09,07,00,4.20
2014,04,09,07,01,4.30
2014,04,09,07,02,4.40
2014,04,09,07,03,4.50
2014,04,09,07,04,4.50
2014,04,09,07,05,4.60
2014,04,09,07,06,4.60
2014,04,09,07,07,4.60
2014,04,09,07,08,4.60
2014,04,09,07,09,4.60
2014,04,09,07,10,4.60
2014,04,09,07,11,4.60
2014,04,09,07,12,4.50
2014,04,09,07,13,4.50
2014,04,09,07,14,4.40
2014,04,09,07,15,4.40
2014,04,09,07,16,4.40
2014,04,09,07,17,4.30
2014,04,09,07,18,4.30
2014,04,09,07,19,4.30
2014,04,09,07,20,4.20
2014,04,09,07,21,4.20
2014,04,09,07,22,4.20
2014,04,09,07,23,4.10
2014,04,09,07,24,4.10
2014,04,09,07,25,4.00
2014,04,09,07,26,4.00
2014,04,09,07,27,4.00
2014,04,09,07,28,4.00
2014,04,09,07,29,4.00
2014,04,09,07,30,4.00
2014,04,09,07,31,4.00
2014,04,09,07,32,4.00
2014,04,09,07,33,4.00
2014,04,09,07,34,4.10
2014,04,09,07,35,4.10
2014,04,09,07,36,4.10
2014,04,09,07,37,4.10
2014,04,09,07,38,4.20
2014,04,09,07,39,4.20
2014,04,09,07,40,4.20
2014,04,09,07,41,4.30
2014,04,09,07,42,4.30
2014,04,09,07,43,4.30
2014,04,09,07,44,4.40
2014,04,09,07,45,4.50
2014,04,09,07,46,4.50
2014,04,09,07,47,4.60
2014,04,09,07,48,4.70
2014,04,09,07,49,4.70
2014,04,09,07,50,4.70
2014,04,09,07,51,4.70
2014,04,09,07,52,4.80
2014,04,09,07,53,4.80
2014,04,09,07,54,4.80
2014,04,09,07,55,4.80
2014,04,09,07,56,4.80
2014,04,09,07,57,4.80
2014,04,09,07,58,4.80
2014,04,09,07,59,4.90
2014,04,09,08,00,4.90
2014,04,09,08,01,4.90
2014,04,09,08,02,4.90
2014,04,09,08,03,5.00
2014,04,09,08,04,5.10
2014,04,09,08,05,5.10
2014,04,09,08,06,5.10
2014,04,09,08,07,5.20
2014,04,09,08,08,5.30
2014,04,09,08,09,5.30
2014,04,09,08,10,5.40
2014,04,09,08,11,5.40
2014,04,09,08,12,5.50
2014,04,09,08,13,5.60
2014,04,09,08,14,5.70
2014,04,09,08,15,5.80
2014,04,09,08,16,5.90
2014,04,09,08,17,5.90
2014,04,09,08,18,6.00
2014,04,09,08,19,6.10
2014,04,09,08,20,6.20
2014,04,09,08,21,6.30
2014,04,09,08,22,6.40
2014,04,09,08,23,6.50
2014,04,09,08,24,6.60
2014,04,09,08,25,6.60
2014,04,09,08,26,6.70
2014,04,09,08,27,6.80
2014,04,09,08,28,6.80
2014,04,09,08,29,6.90
2014,04,09,08,30,7.00
2014,04,09,08,31,7.00
2014,04,09,08,32,7.10
2014,04,09,08,33,7.20
2014,04,09,08,34,7.20
2014,04,09,08,35,7.20
2014,04,09,08,36,7.20
2014,04,09,08,37,7.20
2014,04,09,08,38,7.30
2014,04,09,08,39,7.30
2014,04,09,08,40,7.30
2014,04,09,08,41,7.40
2014,04,09,08,42,7.40
2014,04,09,08,43,7.40
2014,04,09,08,44,7.40
2014,04,09,08,45,7.50
2014,04,09,08,46,7.50
2014,04,09,08,47,7.60
2014,04,09,08,48,7.60
2014,04,09,08,49,7.60
2014,04,09,08,50,7.70
2014,04,09,08,51,7.70
2014,04,09,08,52,7.70
2014,04,09,08,53,7.70
2014,04,09,08,54,7.80
2014,04,09,08,55,7.80
2014,04,09,08,56,7.80
2014,04,09,08,57,7.80
2014,04,09,08,58,7.80
2014,04,09,08,59,7.80
2014,04,09,09,00,7.80
2014,04,09,09,01,7.80
2014,04,09,09,02,7.90
2014,04,09,09,03,7.90
2014,04,09,09,04,7.90
2014,04,09,09,05,7.90
2014,04,09,09,06,7.90
2014,04,09,09,07,7.90
2014,04,09,09,08,7.90
2014,04,09,09,09,8.00
2014,04,09,09,10,8.00
2014,04,09,09,11,8.00
2014,04,09,09,12,8.10
2014,04,09,09,13,8.10
2014,04,09,09,14,8.10
2014,04,09,09,15,8.20
2014,04,09,09,16,8.20
2014,04,09,09,17,8.20
2014,04,09,09,18,8.30
2014,04,09,09,19,8.30
2014,04,09,09,20,8.40
2014,04,09,09,21,8.50
2014,04,09,09,22,8.50
2014,04,09,09,23,8.60
2014,04,09,09,24,8.70
2014,04,09,09,25,8.70
2014,04,09,09,26,8.80
2014,04,09,09,27,8.80
2014,04,09,09,28,8.80
2014,04,09,09,29,8.90
2014,04,09,09,30,8.90
2014,04,09,09,31,8.90
2014,04,09,09,32,8.90
2014,04,09,09,33,8.90
2014,04,09,09,34,8.90
2014,04,09,09,35,8.90
2014,04,09,09,36,9.00
2014,04,09,09,37,9.00
2014,04,09,09,38,9.00
2014,04,09,09,39,9.10
2014,04,09,09,40,9.10
2014,04,09,09,41,9.20
2014,04,09,09,42,9.20
2014,04,09,09,43,9.20
2014,04,09,09,44,9.30
2014,04,09,09,45,9.30
2014,04,09,09,46,9.40
2014,04,09,09,47,9.40
2014,04,09,09,48,9.40
2014,04,09,09,49,9.40
2014,04,09,09,50,9.40
2014,04,09,09,51,9.50
2014,04,09,09,52,9.50
2014,04,09,09,53,9.60
2014,04,09,09,54,9.60
2014,04,09,09,55,9.60
2014,04,09,09,56,9.60
2014,04,09,09,57,9.60
2014,04,09,09,58,9.60
2014,04,09,09,59,9.60
2014,04,09,10,00,9.60
2014,04,09,10,01,9.60
2014,04,09,10,02,9.70
2014,04,09,10,03,9.70
2014,04,09,10,04,9.70
2014,04,09,10,05,9.70
2014,04,09,10,06,9.70
2014,04,09,10,07,9.70
2014,04,09,10,08,9.70
2014,04,09,10,09,9.70
2014,04,09,10,10,9.70
2014,04,09,10,11,9.60
2014,04,09,10,12,9.60
2014,04,09,10,13,9.60
2014,04,09,10,14,9.60
2014,04,09,10,15,9.60
2014,04,09,10,16,9.60
2014,04,09,10,17,9.60
2014,04,09,10,18,9.70
2014,04,09,10,19,9.70
2014,04,09,10,20,9.80
2014,04,09,10,21,9.80
2014,04,09,10,22,9.90
2014,04,09,10,23,9.90
2014,04,09,10,24,9.90
2014,04,09,10,25,10.00
2014,04,09,10,26,10.00
2014,04,09,10,27,10.00
2014,04,09,10,28,10.10
2014,04,09,10,29,10.10
2014,04,09,10,30,10.10
2014,04,09,10,31,10.10
2014,04,09,10,32,10.10
2014,04,09,10,33,10.10
2014,04,09,10,34,10.10
2014,04,09,10,35,10.00
2014,04,09,10,36,10.10
2014,04,09,10,37,10.10
2014,04,09,10,38,10.00
2014,04,09,10,39,10.00
2014,04,09,10,40,10.00
2014,04,09,10,41,10.00
2014,04,09,10,42,10.00
2014,04,09,10,43,10.00
2014,04,09,10,44,10.00
2014,04,09,10,45,10.00
2014,04,09,10,46,10.00
2014,04,09,10,47,10.00
2014,04,09,10,48,10.00
2014,04,09,10,49,10.00
2014,04,09,10,50,9.90
2014,04,09,10,51,9.90
2014,04,09,10,52,9.90
2014,04,09,10,53,9.90
2014,04,09,10,54,9.90
2014,04,09,10,55,9.80
2014,04,09,10,56,9.80
2014,04,09,10,57,9.70
2014,04,09,10,58,9.60
2014,04,09,10,59,9.60
2014,04,09,11,00,9.50
2014,04,09,11,01,9.40
2014,04,09,11,02,9.40
2014,04,09,11,03,9.40
2014,04,09,11,04,9.30
2014,04,09,11,05,9.30
2014,04,09,11,06,9.30
2014,04,09,11,07,9.30
2014,04,09,11,08,9.30
2014,04,09,11,09,9.30
2014,04,09,11,10,9.30
2014,04,09,11,11,9.30
2014,04,09,11,12,9.40
2014,04,09,11,13,9.40
2014,04,09,11,14,9.40
2014,04,09,11,15,9.50
2014,04,09,11,16,9.50
2014,04,09,11,17,9.50
2014,04,09,11,18,9.60
2014,04,09,11,19,9.60
2014,04,09,11,20,9.60
2014,04,09,11,21,9.60
2014,04,09,11,22,9.60
2014,04,09,11,23,9.60
2014,04,09,11,24,9.60
2014,04,09,11,25,9.60
2014,04,09,11,26,9.60
2014,04,09,11,27,9.50
2014,04,09,11,28,9.50
2014,04,09,11,29,9.50
2014,04,09,11,30,9.50
2014,04,09,11,31,9.40
2014,04,09,11,32,9.50
2014,04,09,11,33,9.50
2014,04,09,11,34,9.60
2014,04,09,11,35,9.60
2014,04,09,11,36,9.60
2014,04,09,11,37,9.70
2014,04,09,11,38,9.80
2014,04,09,11,39,9.90
2014,04,09,11,40,9.90
2014,04,09,11,41,9.90
2014,04,09,11,42,9.90
2014,04,09,11,43,9.90
2014,04,09,11,44,9.90
2014,04,09,11,45,9.90
2014,04,09,11,46,9.90
2014,04,09,11,47,9.80
2014,04,09,11,48,9.80
2014,04,09,11,49,9.80
2014,04,09,11,50,9.80
2014,04,09,11,51,9.80
2014,04,09,11,52,9.80
2014,04,09,11,53,9.90
2014,04,09,11,54,9.90
2014,04,09,11,55,9.90
2014,04,09,11,56,9.90
2014,04,09,11,57,9.90
2014,04,09,11,58,9.90
2014,04,09,11,59,9.90
2014,04,09,12,00,9.90
2014,04,09,12,01,9.90
2014,04,09,12,02,9.90
2014,04,09,12,03,9.90
2014,04,09,12,04,9.90
2014,04,09,12,05,9.90
2014,04,09,12,06,9.90
2014,04,09,12,07,9.90
2014,04,09,12,08,9.90
2014,04,09,12,09,10.00
2014,04,09,12,10,10.00
2014,04,09,12,11,10.10
2014,04,09,12,12,10.10
2014,04,09,12,13,10.00
2014,04,09,12,14,9.90
2014,04,09,12,15,9.90
2014,04,09,12,16,9.90
2014,04,09,12,17,9.90
2014,04,09,12,18,9.80
2014,04,09,12,19,9.80
2014,04,09,12,20,9.90
2014,04,09,12,21,9.90
2014,04,09,12,22,9.80
2014,04,09,12,23,9.80
2014,04,09,12,24,9.80
2014,04,09,12,25,9.90
2014,04,09,12,26,9.90
2014,04,09,12,27,10.00
2014,04,09,12,28,10.00
2014,04,09,12,29,10.10
2014,04,09,12,30,10.20
2014,04,09,12,31,10.20
2014,04,09,12,32,10.20
2014,04,09,12,33,10.10
2014,04,09,12,34,10.10
2014,04,09,12,35,10.10
2014,04,09,12,36,10.10
2014,04,09,12,37,10.00
2014,04,09,12,38,10.00
2014,04,09,12,39,10.10
2014,04,09,12,40,10.10
2014,04,09,12,41,10.20
2014,04,09,12,42,10.30
2014,04,09,12,43,10.30
2014,04,09,12,44,10.40
2014,04,09,12,45,10.40
2014,04,09,12,46,10.40
2014,04,09,12,47,10.40
2014,04,09,12,48,10.40
2014,04,09,12,49,10.40
2014,04,09,12,50,10.40
2014,04,09,12,51,10.40
2014,04,09,12,52,10.40
2014,04,09,12,53,10.40
2014,04,09,12,54,10.40
2014,04,09,12,55,10.40
2014,04,09,12,56,10.30
2014,04,09,12,57,10.30
2014,04,09,12,58,10.30
2014,04,09,12,59,10.20
2014,04,09,13,00,10.20
2014,04,09,13,01,10.20
2014,04,09,13,02,10.20
2014,04,09,13,03,10.20
2014,04,09,13,04,10.20
2014,04,09,13,05,10.20
2014,04,09,13,06,10.30
2014,04,09,13,07,10.30
2014,04,09,13,08,10.40
2014,04,09,13,09,10.40
2014,04,09,13,10,10.50
2014,04,09,13,11,10.60
2014,04,09,13,12,10.60
2014,04,09,13,13,10.60
2014,04,09,13,14,10.60
2014,04,09,13,15,10.60
2014,04,09,13,16,10.60
2014,04,09,13,17,10.60
2014,04,09,13,18,10.60
2014,04,09,13,19,10.70
2014,04,09,13,20,10.70
2014,04,09,13,21,10.80
2014,04,09,13,22,10.70
2014,04,09,13,23,10.70
2014,04,09,13,24,10.60
2014,04,09,13,25,10.60
2014,04,09,13,26,10.60
2014,04,09,13,27,10.60
2014,04,09,13,28,10.60
2014,04,09,13,29,10.60
2014,04,09,13,30,10.70
2014,04,09,13,31,10.80
2014,04,09,13,32,10.80
2014,04,09,13,33,10.80
2014,04,09,13,34,10.80
2014,04,09,13,35,10.80
2014,04,09,13,36,10.90
2014,04,09,13,37,11.00
2014,04,09,13,38,11.00
2014,04,09,13,39,11.10
2014,04,09,13,40,11.10
2014,04,09,13,41,11.10
2014,04,09,13,42,11.10
2014,04,09,13,43,11.20
2014,04,09,13,44,11.20
2014,04,09,13,45,11.20
2014,04,09,13,46,11.20
2014,04,09,13,47,11.10
2014,04,09,13,48,11.00
2014,04,09,13,49,10.90
2014,04,09,13,50,10.90
2014,04,09,13,51,10.90
2014,04,09,13,52,11.00
2014,04,09,13,53,11.00
2014,04,09,13,54,11.00
2014,04,09,13,55,11.10
2014,04,09,13,56,11.10
2014,04,09,13,57,11.20
2014,04,09,13,58,11.30
2014,04,09,13,59,11.40
2014,04,09,14,00,11.50
2014,04,09,14,01,11.60
2014,04,09,14,02,11.60
2014,04,09,14,03,11.60
2014,04,09,14,04,11.60
2014,04,09,14,05,11.60
2014,04,09,14,06,11.60
2014,04,09,14,07,11.60
2014,04,09,14,08,11.70
2014,04,09,14,09,11.70
2014,04,09,14,10,11.70
2014,04,09,14,11,11.70
2014,04,09,14,12,11.70
2014,04,09,14,13,11.70
2014,04,09,14,14,11.60
2014,04,09,14,15,11.60
2014,04,09,14,16,11.60
2014,04,09,14,17,11.50
2014,04,09,14,18,11.50
2014,04,09,14,19,11.40
2014,04,09,14,20,11.50
2014,04,09,14,21,11.50
2014,04,09,14,22,11.60
2014,04,09,14,23,11.60
2014,04,09,14,24,11.60
2014,04,09,14,25,11.60
2014,04,09,14,26,11.60
2014,04,09,14,27,11.60
2014,04,09,14,28,11.70
2014,04,09,14,29,11.70
2014,04,09,14,30,11.80
2014,04,09,14,31,11.80
2014,04,09,14,32,11.80
2014,04,09,14,33,11.80
2014,04,09,14,34,11.80
2014,04,09,14,35,11.70
2014,04,09,14,36,11.70
2014,04,09,14,37,11.70
2014,04,09,14,38,11.60
2014,04,09,14,39,11.60
2014,04,09,14,40,11.60
2014,04,09,14,41,11.60
2014,04,09,14,42,11.70
2014,04,09,14,43,11.70
2014,04,09,14,44,11.70
2014,04,09,14,45,11.70
2014,04,09,14,46,11.70
2014,04,09,14,47,11.70
2014,04,09,14,48,11.70
2014,04,09,14,49,11.80
2014,04,09,14,50,11.80
2014,04,09,14,51,11.80
2014,04,09,14,52,11.80
2014,04,09,14,53,11.80
2014,04,09,14,54,11.80
2014,04,09,14,55,11.80
2014,04,09,14,56,11.80
2014,04,09,14,57,11.80
2014,04,09,14,58,11.80
2014,04,09,14,59,11.80
2014,04,09,15,00,11.70
2014,04,09,15,01,11.70
2014,04,09,15,02,11.70
2014,04,09,15,03,11.70
2014,04,09,15,04,11.70
2014,04,09,15,05,11.80
2014,04,09,15,06,11.80
2014,04,09,15,07,11.80
2014,04,09,15,08,11.80
2014,04,09,15,09,11.80
2014,04,09,15,10,11.80
2014,04,09,15,11,11.80
2014,04,09,15,12,11.80
2014,04,09,15,13,11.70
2014,04,09,15,14,11.70
2014,04,09,15,15,11.60
2014,04,09,15,16,11.60
2014,04,09,15,17,11.60
2014,04,09,15,18,11.60
2014,04,09,15,19,11.60
2014,04,09,15,20,11.60
2014,04,09,15,21,11.70
2014,04,09,15,22,11.70
2014,04,09,15,23,11.80
2014,04,09,15,24,11.80
2014,04,09,15,25,11.80
2014,04,09,15,26,11.90
2014,04,09,15,27,12.00
2014,04,09,15,28,12.00
2014,04,09,15,29,12.00
2014,04,09,15,30,12.00
2014,04,09,15,31,12.00
2014,04,09,15,32,12.00
2014,04,09,15,33,12.00
2014,04,09,15,34,12.00
2014,04,09,15,35,12.10
2014,04,09,15,36,12.10
2014,04,09,15,37,12.10
2014,04,09,15,38,12.20
2014,04,09,15,39,12.20
2014,04,09,15,40,12.20
2014,04,09,15,41,12.30
2014,04,09,15,42,12.30
2014,04,09,15,43,12.30
2014,04,09,15,44,12.30
2014,04,09,15,45,12.30
2014,04,09,15,46,12.30
2014,04,09,15,47,12.30
2014,04,09,15,48,12.40
2014,04,09,15,49,12.40
2014,04,09,15,50,12.40
2014,04,09,15,51,12.50
2014,04,09,15,52,12.50
2014,04,09,15,53,12.60
2014,04,09,15,54,12.60
2014,04,09,15,55,12.50
2014,04,09,15,56,12.40
2014,04,09,15,57,12.20
2014,04,09,15,58,12.10
2014,04,09,15,59,12.00
2014,04,09,16,00,11.90
2014,04,09,16,01,11.90
2014,04,09,16,02,11.80
2014,04,09,16,03,11.80
2014,04,09,16,04,11.80
2014,04,09,16,05,11.80
2014,04,09,16,06,11.90
2014,04,09,16,07,11.90
2014,04,09,16,08,12.00
2014,04,09,16,09,12.00
2014,04,09,16,10,12.10
2014,04,09,16,11,12.20
2014,04,09,16,12,12.20
2014,04,09,16,13,12.20
2014,04,09,16,14,12.30
2014,04,09,16,15,12.30
2014,04,09,16,16,12.30
2014,04,09,16,17,12.30
2014,04,09,16,18,12.30
2014,04,09,16,19,12.30
2014,04,09,16,20,12.30
2014,04,09,16,21,12.40
2014,04,09,16,22,12.40
2014,04,09,16,23,12.50
2014,04,09,16,24,12.60
2014,04,09,16,25,12.60
2014,04,09,16,26,12.70
2014,04,09,16,27,12.70
2014,04,09,16,28,12.70
2014,04,09,16,29,12.70
2014,04,09,16,30,12.60
2014,04,09,16,31,12.60
2014,04,09,16,32,12.50
2014,04,09,16,33,12.50
2014,04,09,16,34,12.50
2014,04,09,16,35,12.50
2014,04,09,16,36,12.60
2014,04,09,16,37,12.60
2014,04,09,16,38,12.70
2014,04,09,16,39,12.70
2014,04,09,16,40,12.80
2014,04,09,16,41,12.80
2014,04,09,16,42,12.80
2014,04,09,16,43,12.80
2014,04,09,16,44,12.80
2014,04,09,16,45,12.80
2014,04,09,16,46,12.80
2014,04,09,16,47,12.80
2014,04,09,16,48,12.80
2014,04,09,16,49,12.80
2014,04,09,16,50,12.80
2014,04,09,16,51,12.80
2014,04,09,16,52,12.80
2014,04,09,16,53,12.70
2014,04,09,16,54,12.70
2014,04,09,16,55,12.70
2014,04,09,16,56,12.60
2014,04,09,16,57,12.50
2014,04,09,16,58,12.40
2014,04,09,16,59,12.30
2014,04,09,17,00,12.30
2014,04,09,17,01,12.20
2014,04,09,17,02,12.20
2014,04,09,17,03,12.20
2014,04,09,17,04,12.30
2014,04,09,17,05,12.30
2014,04,09,17,06,12.30
2014,04,09,17,07,12.30
2014,04,09,17,08,12.30
2014,04,09,17,09,12.40
2014,04,09,17,10,12.40
2014,04,09,17,11,12.40
2014,04,09,17,12,12.30
2014,04,09,17,13,12.30
2014,04,09,17,14,12.30
2014,04,09,17,15,12.30
2014,04,09,17,16,12.30
2014,04,09,17,17,12.30
2014,04,09,17,18,12.30
2014,04,09,17,19,12.30
2014,04,09,17,20,12.30
2014,04,09,17,21,12.20
2014,04,09,17,22,12.20
2014,04,09,17,23,12.20
2014,04,09,17,24,12.10
2014,04,09,17,25,12.10
2014,04,09,17,26,12.10
2014,04,09,17,27,12.10
2014,04,09,17,28,12.10
2014,04,09,17,29,12.10
2014,04,09,17,30,12.10
2014,04,09,17,31,12.10
2014,04,09,17,32,12.20
2014,04,09,17,33,12.20
2014,04,09,17,34,12.20
2014,04,09,17,35,12.20
2014,04,09,17,36,12.20
2014,04,09,17,37,12.30
2014,04,09,17,38,12.20
2014,04,09,17,39,12.20
2014,04,09,17,40,12.20
2014,04,09,17,41,12.20
2014,04,09,17,42,12.20
2014,04,09,17,43,12.10
2014,04,09,17,44,12.10
2014,04,09,17,45,12.10
2014,04,09,17,46,12.10
2014,04,09,17,47,12.10
2014,04,09,17,48,12.10
2014,04,09,17,49,12.00
2014,04,09,17,50,12.00